COSMOS 1275 DEB, 42221

Orbit data source: Space-Track

COSMOS 1275 DEB, 42221 is space debris in LEO originally from a launch on Thu, 04 Jun 1981 UTC launched from the Plesetsk Missile And Space Complex (PKMTR). Debris objects in space refer to the collection of defunct objects orbiting the Earth. Examples of debris include non-operational satellites, rocket bodies, and fragments generated from explosions, collisions, or faulty payload assembly.

Loading next visibility...
Identifier
42221, 1981-053UM
Orbit
LEO
Country
Flag of CISCIS
Related business
Manufacturer
Unknown
Mission
Spacecraft
Bus & Motor
Unknown
Mass
Unknown
Launch date (UTC)
1981-06-04 (44 years ago)
Launch vehicle
Unknown
Launch site
Plesetsk Missile And Space Complex (PKMTR)
Object type
Payload
Rocket body
Debris
Shape & HBR
Unknown shape, 0.1 m
Radar Cross Section
Small (<0.1 m²)

Expand to show TLE details & history
Last TLE update: 2 days ago

TLE from 2 days ago
0 COSMOS 1275 DEB
1 42221U 81053UM  25290.14577811  .00001689  00000-0  15896-2 0  9995
2 42221  82.8953  77.9353 0080772 194.7816 165.0981 13.79440128597709
Epoch: 2025-10-17T03:29Z
TLE epoch observation values (Epoch: 2025-10-17T03:29:55.228Z)
Latitude
-0.00006°
Longitude
-0.44017°
Altitude
1,026.144 km
Speed
7.31 km/s
True Right ascension
05h 11m 44s
True Declination
0° 00' 00"
Sunlit
Object was in full shadow at epoch
Visualization orbit readout
Latitude
Unknown
Longitude
Unknown
Altitude
Unknown
Speed
Unknown
Apparent Right ascension
Unknown
Apparent Declination
Unknown
Sunlit
N/A
Visualization observer readout
Local Sidereal Time
10:04:31
Azimuth
Unknown
Elevation
Unknown
Doppler factor
Unknown
Orbital elements
Apogee altitude
1,022.313 km
Perigee altitude
903.721 km
Semi-major axis
7,341.154 km
Eccentricity
0.00808
Inclination
82.8953°
RAAN
77.9353°
Arg. of periapsis
194.7816°
True anomaly
165.33382°
Mean anomaly
165.0981°
Eccentric anomaly
165.21619°
Mean motion
3.45062 °/min
Orbital period
104.33 mins
BSTAR
0.0015896
Loading maneuver chart data...
Computing Atmospheric mass density...

Documentation

Showing up to 5 results
|